TIME,DELAY(SENSOR),PRES,OXYGEN,RAWTEMP,T(OPTODE),TCPHASE,FLUOR,BETA(BETA700),BETA(BETA412),BETA(BETA440),CDOM,C(CSC),ED(ED412.40),ED(ED444.00),ED(ED489.70),ED(ED554.30),LU(LU411.80),LU(LU443.40),LU(LU489.60),LU(LU554.10),COMP,TILTX,TILTY,CHECK
1381290460,5806,817.3800048828125000,45.4827117919921900,661.1765136718750000,4.5892348289489750,54.2015495300293000,51,100,87,79,79,15269,2147757458,2147424054,2148010779,2147872493,2147639268,2147052507,2148261476,2147197129,3510,4,13,19696
1381294056,5810,889.2000122070312000,50.0699005126953100,667.5783081054688000,4.3781619071960450,53.6323204040527340,52,100,87,78,79,15272,2147757174,2147423268,2148010550,2147875346,2147643931,2147053586,2148264201,2147196964,3468,4,13,45172
1381297656,5810,895.0900268554688000,55.1948890686035160,667.1646118164062000,4.3918170928955080,52.9292488098144500,52,96,86,78,79,15272,2147756982,2147423689,2148012452,2147873947,2147642057,2147050861,2148262473,2147196699,4,4,13,35610
1381301256,5807,928.4699707031250000,51.4578590393066400,671.4387817382812000,4.2506580352783200,53.4889602661132800,53,98,88,78,79,15267,2147753709,2147425380,2148014189,2147876333,2147641334,2147049883,2148266166,2147200128,194,4,13,60480
1381304856,5810,934.3499755859375000,51.5555305480957000,671.3798217773438000,4.2526068687438965,53.4731483459472660,53,98,88,78,79,15268,2147756571,2147423433,2148013284,2147873499,2147642130,2147049316,2148264795,2147196315,3569,3,13,58846
1381308456,5812,942.0300292968750000,50.5829086303710940,670.3704833984375000,4.2859568595886230,53.5955200195312500,53,99,82,78,78,15269,2147758436,2147427611,2148015277,2147872777,2147640950,2147048896,2148260233,2147197028,401,4,13,53599
1381312056,5807,966.7600097656250000,51.2192497253418000,672.6995239257812000,4.2089819908142090,53.5395202636718750,53,98,84,78,78,15268,2147758189,2147423195,2148012288,2147873243,2147642331,2147054985,2148262802,2147192402,77,4,13,54920
1381315656,5809,967.4699707031250000,51.2487602233886700,672.9633178710938000,4.2002601623535160,53.5358390808105500,53,97,83,77,77,15268,2147760576,2147423094,2148014902,2147875501,2147642450,2147050816,2148264539,2147197933,189,4,13,39578
1381319256,5809,974.3900146484375000,50.9434585571289060,673.1345214843750000,4.1945991516113280,53.5775985717773440,53,96,87,79,78,15270,2147760219,2147421869,2148008265,2147875995,2147642806,2147056576,2148264886,2147193517,142,4,13,55758
1381322856,5808,971.8099975585938000,51.1622390747070300,673.2468872070312000,4.1908822059631350,53.5482711791992200,52,98,81,78,78,15267,2147756013,2147424118,2148012379,2147875949,2147640722,2147055826,2148259273,2147194550,3430,4,13,29628
1381326456,5811,968.2899780273438000,51.3499488830566400,673.8068847656250000,4.1723589897155760,53.5298805236816400,52,98,86,83,79,15268,2147758226,2147425033,2148014326,2147878683,2147640448,2147049581,2148259904,2147199881,532,4,13,13343
1381330056,5813,972.8800048828125000,52.6902313232421900,673.6536254882812000,4.1774311065673830,53.3529090881347660,51,98,85,77,78,15263,2147756470,2147420534,2148015670,2147877321,2147641508,2147052507,2148264329,2147196836,3332,4,13,50399
1381333656,5807,974.0700073242188000,53.8591003417968750,674.0471801757812000,4.1644101142883300,53.1957893371582000,52,98,85,79,77,15258,2147757778,2147425344,2148013988,2147876946,2147638747,2147052608,2148265088,2147196717,3484,4,13,13909
1381337256,5809,974.2600097656250000,52.6266288757324200,673.7647094726562000,4.1737561225891110,53.3569412231445300,53,98,83,78,79,15257,2147758866,2147425353,2148012178,2147878390,2147640155,2147051017,2148264082,2147198189,30,4,13,33087
1381340856,5807,970.8499755859375000,54.9525108337402340,674.0330200195312000,4.1648831367492680,53.0496101379394500,51,100,85,78,78,15263,2147757449,2147425206,2148011657,2147877330,2147641974,2147053632,2148263899,2147197248,80,4,13,18579
1381344456,5805,973.7500000000000000,55.3023300170898440,674.5347290039062000,4.1482830047607420,53.0148200988769500,51,98,86,78,78,15263,2147760786,2147423680,2148012004,2147876918,2147640886,2147058358,2148265828,2147198253,3454,3,13,55431
1381348056,5810,981.8099975585938000,51.3190383911132800,673.7545776367188000,4.1740889549255370,53.5390586853027340,52,100,83,77,78,15258,2147754980,2147423451,2148012178,2147877595,2147644333,2147053924,2148259081,2147198098,573,4,13,19927
1381351656,5809,982.2100219726562000,51.0792007446289060,673.1240234375000000,4.1949439048767090,53.5619697570800800,52,99,82,78,79,15261,2147758427,2147426230,2148013513,2147876754,2147641700,2147049856,2148262957,2147195666,3261,3,13,45356
1381355256,5807,982.7199707031250000,51.0061798095703100,672.7014770507812000,4.2089138031005860,53.5676918029785160,52,100,86,78,78,15255,2147759040,2147424310,2148011849,2147874998,2147641152,2147055506,2148264749,2147196854,3454,3,13,46569
1381358856,5810,981.8400268554688000,50.7468605041503900,673.1702880859375000,4.1934127807617190,53.6095504760742200,53,99,83,78,78,15241,2147757156,2147422134,2148009609,2147875401,2147642102,2147057170,2148264219,2147195081,3471,4,13,40489
1381362456,5808,977.2399902343750000,53.3590011596679700,673.6687011718750000,4.1769289970397950,53.2592506408691400,52,97,84,78,77,15242,2147756288,2147426093,2148011830,2147873024,2147642331,2147055085,2148261330,2147194523,3485,3,13,1457
1381366056,5808,986.1599731445312000,51.2171401977539060,673.2617187500000000,4.1903901100158690,53.5472602844238300,53,99,85,77,78,15238,2147757220,2147425563,2148010450,2147873856,2147642733,2147054445,2148265042,2147199268,3582,3,13,25397
1381369656,5810,977.3300170898438000,51.1859016418457000,673.8527832031250000,4.1708412170410160,53.5560111999511700,53,100,84,78,78,15241,2147757074,2147424301,2148009910,2147875245,2147643044,2147054400,2148264064,2147196470,54,4,13,49009
1381373256,5810,973.1099853515625000,54.0232887268066400,674.6591796875000000,4.1441612243652340,53.1822891235351560,52,98,84,79,78,15245,2147758235,2147424795,2148009600,2147876516,2147643163,2147064246,2148261558,2147202825,3017,4,13,25273
1381376856,5809,978.0599975585938000,53.1588897705078100,674.8928222656250000,4.1364331245422360,53.3014488220214840,52,100,85,78,79,15240,2147757659,2147425024,2148012306,2147874157,2147644260,2147052105,2148267254,2147199021,3158,4,13,18625
1381380456,5810,980.1500244140625000,54.5863609313964840,674.0797119140625000,4.1633358001708980,53.1026496887207000,53,98,88,78,79,15242,2147758372,2147423872,2148016630,2147871561,2147641334,2147051273,2148267830,2147200173,3396,4,13,63562
1381384056,5806,975.7299804687500000,54.1277084350585940,674.0739746093750000,4.1635251045227050,53.1611595153808600,52,98,82,82,79,15238,2147753956,2147424557,2148011200,2147875035,2147642669,2147051986,2148260690,2147200621,316,3,13,43667
1381387656,5812,975.4000244140625000,54.0868606567382800,674.0991821289062000,4.1626911163330080,53.1706390380859400,53,99,98,78,79,15239,2147756873,2147424411,2148013211,2147872923,2147641654,2147053083,2148265033,2147198070,3453,4,13,54520
1381391256,5809,984.4400024414062000,53.3720207214355500,673.5390014648438000,4.1812191009521480,53.2584686279296900,53,100,88,79,79,15241,2147756242,2147426002,2148012434,2147871460,2147642541,2147056594,2148260553,2147199981,3515,4,13,4237
1381394856,5811,986.2399902343750000,52.9425201416015600,673.6926269531250000,4.1761398315429690,53.3134994506835940,51,98,86,79,77,15241,2147758592,2147423936,2148011538,2147874304,2147642752,2147053961,2148264996,2147196553,3568,4,13,32267
1381398456,5811,985.1199951171875000,52.6870117187500000,673.3024291992188000,4.1890430450439450,53.3491287231445300,53,99,86,79,79,15237,2147757568,2147424475,2148010029,2147874002,2147642413,2147050048,2148263698,2147201828,36,4,13,29036
1381402056,5811,985.7899780273438000,53.1741905212402340,673.5349731445312000,4.1813511848449710,53.2810287475585940,52,98,85,77,79,15236,2147756416,2147422848,2148010797,2147874358,2147642852,2147054939,2148263981,2147197019,76,4,13,11976
1381405656,5807,976.0999755859375000,52.0536613464355500,674.1010131835938000,4.1626319885253910,53.4393806457519500,52,98,84,78,79,15238,2147756781,2147426121,2148010240,2147875702,2147642441,2147056027,2148270811,2147196708,235,4,13,27645
1381409256,5809,976.6199951171875000,55.4094390869140600,674.0405273437500000,4.1646327972412110,52.9941596984863300,52,98,86,79,79,15240,2147758939,2147425563,2148009947,2147876854,2147640621,2147057142,2148262893,2147199396,215,4,13,57370
1381412856,5811,979.2199707031250000,54.9886512756347660,674.3099975585938000,4.1557159423828125,53.0531387329101560,52,97,83,79,77,15239,2147757165,2147426706,2148012672,2147873837,2147640676,2147054582,2148263113,2147195986,321,4,13,58923
1381416456,5809,975.9500122070312000,54.7256813049316400,674.3687133789062000,4.1537737846374510,53.0850410461425800,52,97,86,79,78,15238,2147758601,2147423945,2148015478,2147875099,2147640274,2147058916,2148261577,2147200201,3596,4,13,48654
1381420056,5807,971.1400146484375000,52.2981185913085940,676.2064819335938000,4.0929551124572750,53.4373207092285160,52,98,84,77,78,15234,2147757842,2147426761,2148011812,2147877449,2147641554,2147053165,2148264886,2147200018,3159,4,13,3876
1381423656,5812,974.6199951171875000,52.5009918212890600,676.1911010742188000,4.0934638977050780,53.4057617187500000,53,98,84,77,78,15235,2147758409,2147425426,2148012653,2147873837,2147641654,2147052626,2148264960,2147199122,3512,4,13,61544
1381427256,5808,977.1699829101562000,52.2863388061523440,676.2288818359375000,4.0922131538391110,53.4374809265136700,53,98,88,78,78,15235,2147760850,2147423021,2148012608,2147868516,2147644571,2147056740,2148264219,2147198957,3487,4,13,18151
1381430856,5810,983.4299926757812000,52.4447784423828100,674.9771728515625000,4.1336398124694820,53.3997917175293000,52,97,87,78,78,15235,2147757796,2147425462,2148015195,2147874843,2147645110,2147059629,2148263990,2147198171,129,3,13,23605
1381434456,5809,985.7100219726562000,54.3131408691406250,674.0626831054688000,4.1638970375061035,53.1407814025878900,52,98,89,78,78,15232,2147755757,2147425216,2148014976,2147875446,2147644589,2147055497,2148262162,2147199177,3130,3,13,49135
1381434955,5808,984.9799804687500000,54.0605392456054700,674.1483764648438000,4.1610598564147950,53.1723709106445300,52,98,84,82,78,15256,2147756242,2147422729,2148014107,2147874550,2147643510,2147050450,2148261156,2147201115,3595,4,13,29982
